Theta_e
311 312 312 311 311 312 313 312 313 314 313 312 309 309 309 309 309 310 311 310 312 311 312 312 313 315 315 315 317 317 318 318 321 324 320 321 322 322 322 322 322 322 321 320 319 324 325 330 334 329 326 340 343 349
313 311 310 309 311 312 311 312 313 313 313 311 309 309 309 309 309 309 309 310 311 309 311 312 312 312 313 315 315 316 315 314 318 318 321 322 325 326 325 331 323 324 320 322 320 321 320 331 332 335 339 341 343 348
316 315 313 309 310 311 311 313 313 313 313 311 310 309 309 309 309 309 308 310 309 309 311 312 315 316 316 316 314 314 315 317 317 317 316 320 328 324 326 326 327 326 324 329 330 331 330 334 339 340 338 337 337 336
317 316 313 311 311 311 312 312 312 313 313 311 310 309 309 309 309 309 308 309 308 309 310 313 314 315 314 315 317 315 314 316 318 317 315 318 323 322 323 322 322 321 322 323 325 328 330 334 339 338 337 337 336 337
318 317 315 312 312 312 312 312 312 313 313 311 309 309 308 308 309 310 310 310 311 309 312 313 316 319 320 320 319 320 317 313 315 314 315 319 319 319 319 321 320 320 320 321 323 323 326 331 338 339 337 338 338 338
318 317 317 314 314 313 313 313 313 313 313 311 309 309 308 309 310 310 311 316 315 309 310 313 315 315 318 322 322 320 319 314 316 316 313 318 321 320 322 326 322 324 325 326 326 329 329 333 334 335 336 339 339 339
318 315 316 316 315 315 314 313 312 313 312 311 310 309 310 312 311 309 312 313 313 310 311 315 316 318 323 323 321 319 317 317 317 318 314 315 317 319 318 321 321 325 325 328 328 331 334 336 337 337 338 340 340 339
317 317 316 316 315 314 314 312 311 313 312 311 310 309 314 314 312 312 314 315 313 312 315 318 318 321 325 323 321 321 319 318 317 316 316 314 315 316 319 319 324 325 325 325 325 328 328 331 335 336 338 340 341 340
315 316 315 315 314 315 312 311 312 312 312 311 310 311 315 314 314 316 315 315 314 315 315 319 323 326 324 324 324 323 321 317 318 315 314 315 313 315 315 320 324 325 326 325 325 325 325 325 326 329 334 336 337 338
314 314 314 314 314 313 312 311 311 311 311 310 309 311 316 314 313 314 315 314 313 315 314 314 317 321 320 322 325 324 323 320 321 317 317 319 317 319 320 322 326 326 326 326 327 327 326 327 327 328 328 329 333 335
315 313 313 312 314 312 312 311 311 311 310 308 308 309 312 312 314 316 317 317 317 319 316 318 319 319 317 322 325 327 326 326 326 325 322 320 320 322 328 325 324 326 327 328 328 328 328 327 327 327 330 332 333 335
315 312 312 312 313 312 311 311 311 309 308 306 307 308 310 312 316 318 320 319 320 321 320 321 322 320 320 320 325 326 328 325 329 324 327 331 328 328 329 328 328 328 328 328 328 329 330 331 332 332 333 333 332 331
313 312 313 313 314 312 310 310 309 308 307 307 309 309 310 313 314 320 321 321 323 322 321 322 323 323 321 322 325 325 328 328 324 327 329 331 330 330 331 331 332 331 330 330 330 331 331 332 333 333 333 332 330 330
312 312 312 312 311 310 310 308 307 307 306 308 311 310 315 317 317 320 320 321 320 320 319 320 322 324 325 323 326 328 326 326 328 330 330 328 329 330 330 330 331 330 330 330 330 329 329 329 328 329 329 329 329 329
312 311 312 311 310 309 308 306 307 306 306 309 310 312 316 316 317 317 317 319 320 320 319 320 321 322 323 326 325 326 328 329 328 328 327 329 329 330 330 330 330 329 329 328 328 328 327 327 327 327 327 327 327 327
311 312 311 310 308 307 307 306 307 307 308 309 309 311 312 315 316 316 317 318 318 318 320 322 322 324 323 322 327 328 328 329 328 326 329 329 328 328 328 328 328 328 327 327 326 325 323 320 320 321 322 321 321 321
310 310 309 309 307 306 307 307 306 308 308 309 310 310 310 311 313 315 316 316 316 319 321 321 324 325 324 325 327 325 327 324 325 328 329 328 328 327 326 326 325 326 325 325 323 321 323 324 323 323 322 323 322 321
309 309 308 307 306 306 305 307 307 309 311 310 309 310 311 312 313 314 314 315 315 315 317 320 321 323 324 326 327 323 324 326 325 327 329 328 328 326 327 326 325 324 323 322 324 325 325 325 324 322 323 322 322 322
310 308 307 305 305 305 305 308 308 309 310 309 309 310 311 312 312 312 313 314 315 315 315 317 319 320 322 322 322 321 323 324 326 327 328 330 328 327 326 326 325 324 323 324 324 324 325 324 323 323 323 322 319 318
307 306 306 306 305 305 307 307 308 309 308 309 309 309 310 310 311 311 312 313 314 314 315 316 316 320 320 320 320 320 322 323 325 326 326 326 326 327 328 326 325 325 323 323 324 324 324 325 325 324 324 323 321 320
305 307 306 306 305 305 305 306 308 309 309 309 310 309 309 310 310 311 312 312 313 314 313 317 318 318 319 320 321 320 321 322 323 323 324 325 324 324 326 327 327 326 324 323 323 324 324 324 323 322 321 320 322 321
305 306 306 306 307 307 307 306 306 306 307 308 308 309 309 310 310 311 311 313 313 314 314 315 315 315 316 316 316 317 319 321 321 321 321 324 323 323 324 324 324 325 325 324 324 323 324 324 323 322 323 322 322 320
304 305 305 305 308 307 306 306 307 308 308 309 310 312 314 314 315 316 315 315 314 315 315 314 314 315 315 316 317 318 317 316 320 322 320 320 320 321 323 323 324 324 325 325 325 324 323 324 323 322 323 322 322 322
304 304 307 306 307 303 306 308 309 309 310 310 311 313 314 315 316 317 316 318 319 319 319 319 319 319 319 320 320 320 321 321 320 321 322 322 321 321 321 322 323 324 325 326 325 323 323 323 322 321 321 321 321 321
304 305 304 301 306 307 308 310 311 310 312 313 314 315 314 315 315 318 318 316 319 320 319 318 318 318 318 318 317 318 318 319 319 319 320 321 321 322 321 322 323 324 324 324 324 323 322 322 323 321 320 320 321 321
304 303 302 307 308 307 311 312 312 311 310 313 312 313 315 315 318 318 317 316 316 317 317 317 317 317 317 317 317 316 316 316 316 317 317 319 321 321 322 322 321 322 323 323 323 323 322 322 323 322 321 321 321 321
305 304 306 307 308 309 308 309 309 307 309 312 311 312 315 318 318 318 316 315 315 316 318 319 318 319 319 317 318 317 316 316 315 315 316 320 322 323 323 322 320 321 321 322 324 323 323 323 323 322 321 321 321 322
306 306 307 308 308 308 308 308 308 309 310 311 311 315 317 317 317 314 313 315 317 320 320 319 320 320 318 316 317 317 317 317 316 317 320 320 321 323 322 321 322 322 322 321 322 323 322 323 322 322 323 322 322 322
306 307 307 307 308 308 309 309 310 310 311 311 310 310 311 313 313 314 315 315 318 320 321 321 320 319 319 319 319 319 318 318 318 319 320 320 321 322 322 322 322 321 322 322 322 323 323 322 323 323 322 322 322 322
307 308 308 309 309 309 309 309 309 309 310 310 311 311 311 312 317 316 317 321 321 321 321 321 320 320 320 320 321 322 321 319 318 318 319 319 321 322 322 321 321 320 321 322 322 322 322 322 322 323 323 322 322 322
308 309 309 309 310 310 310 311 311 311 311 312 312 312 313 314 318 320 318 318 321 320 320 320 321 321 321 319 319 319 320 321 322 321 320 320 321 321 322 322 322 322 323 323 323 321 321 321 321 322 323 323 322 322
310 309 309 309 310 311 311 313 313 314 315 316 317 316 317 318 319 320 320 317 319 320 320 319 319 320 321 320 320 320 322 323 323 321 320 320 320 321 321 322 322 322 323 323 322 322 320 320 322 323 323 322 322 322
310 310 309 309 309 312 315 316 316 318 319 320 321 321 321 321 321 320 321 318 319 319 319 320 320 319 319 319 319 320 322 322 321 321 321 320 320 321 322 323 322 322 322 323 322 321 322 323 323 322 322 323 323 323
Wind_Speed
19 20 20 22 23 22 23 23 24 26 27 26 25 26 23 21 18 17 14 9 6 8 30 37 24 18 14 11 4 8 10 3 4 4 2 3 3 5 3 4 5 6 5 4 3 2 5 7 3 8 7 4 20 23
19 19 20 21 21 21 23 23 24 26 26 25 25 25 24 21 19 16 18 12 16 17 27 38 45 49 43 31 9 4 3 4 4 2 1 1 2 2 4 2 2 3 6 6 8 6 5 5 5 13 28 28 19 25
20 21 21 21 22 23 23 21 23 25 26 25 26 25 24 22 19 17 21 20 18 12 29 21 24 11 8 22 38 12 7 6 3 4 2 3 4 3 3 4 1 2 3 3 3 3 3 11 27 26 25 23 23 21
22 22 21 21 22 22 23 24 25 26 25 25 26 25 25 24 23 21 22 22 15 8 6 15 8 24 25 15 21 34 34 10 6 11 1 1 2 1 3 3 3 4 2 4 2 3 8 11 27 27 21 24 22 22
22 21 21 22 22 22 23 24 26 27 26 26 27 24 25 27 25 24 23 21 21 15 5 17 37 3 1 8 21 24 32 34 15 3 1 3 3 1 2 2 3 0 3 3 4 5 4 11 23 23 21 25 24 26
22 22 23 23 23 23 24 25 26 27 26 27 27 26 28 24 21 16 5 4 5 16 5 5 10 12 7 5 13 22 27 23 9 6 4 4 3 0 2 2 5 5 4 2 3 7 5 14 16 19 24 26 27 27
21 25 24 23 23 25 25 25 26 26 26 27 28 29 26 19 16 9 3 2 2 12 5 6 5 7 10 3 11 14 19 10 9 6 4 3 3 3 2 3 6 6 6 8 11 18 17 14 6 15 22 27 30 30
23 24 23 24 23 25 26 27 27 26 27 27 28 25 18 11 9 8 4 7 14 9 6 3 5 6 12 3 6 11 11 13 8 7 3 3 2 1 2 7 8 9 7 6 9 12 16 18 12 12 17 26 29 29
23 23 23 22 25 25 23 25 24 26 26 26 25 15 8 2 1 2 9 7 16 7 4 3 3 4 17 8 1 7 7 2 4 3 3 7 2 4 8 10 13 16 17 15 15 13 11 11 12 12 15 21 25 27
22 22 21 22 25 23 23 23 26 29 25 23 12 3 3 3 10 10 3 5 12 6 7 3 5 4 5 6 4 1 1 3 3 5 8 3 4 15 14 23 20 23 16 20 17 12 10 9 7 6 10 17 26 29
24 26 21 22 26 21 23 23 23 26 22 13 8 4 8 11 6 3 3 6 7 3 7 8 10 3 3 1 3 5 1 1 2 1 4 3 3 4 8 16 16 18 21 19 13 12 8 6 4 2 8 17 26 34
24 23 18 20 20 20 21 21 20 18 17 16 12 14 9 3 3 3 3 3 4 4 2 2 5 6 3 6 3 4 2 2 2 3 2 2 3 2 14 22 25 26 25 19 14 13 11 10 8 9 9 13 27 33
23 21 18 16 18 17 18 15 14 18 19 8 3 3 2 3 1 4 4 2 2 4 5 6 4 2 5 3 3 1 5 4 3 2 2 2 1 13 24 29 28 25 23 21 20 18 17 16 14 13 14 15 25 27
21 19 16 18 14 14 9 11 14 16 8 3 3 4 3 3 3 2 2 2 5 4 13 8 4 3 2 2 2 4 4 1 2 1 3 2 10 19 26 29 30 28 25 24 22 19 16 13 13 12 12 12 14 17
16 16 15 12 11 6 8 11 14 13 4 4 3 4 4 6 5 4 11 6 5 10 9 4 4 1 1 3 3 3 1 2 4 3 1 9 19 25 27 27 28 27 25 23 19 16 14 10 7 7 7 7 7 9
12 13 10 8 9 8 12 13 14 5 3 4 5 4 8 5 5 8 12 9 7 10 3 3 2 1 1 2 2 2 3 1 2 2 9 18 20 22 23 22 21 20 18 16 12 9 7 5 4 4 3 5 7 10
10 9 10 12 12 11 13 15 4 5 5 4 5 9 17 14 11 10 9 15 15 8 2 2 3 2 2 2 0 3 2 3 4 6 19 24 23 21 20 17 15 13 11 9 8 9 9 7 6 3 3 3 2 2
10 9 11 12 12 15 7 5 4 4 6 10 4 10 8 11 12 13 12 11 9 8 5 2 3 2 1 3 3 3 5 6 3 10 15 18 17 18 13 13 11 9 8 8 9 7 5 3 2 6 5 6 6 7
9 9 9 8 8 6 3 3 4 4 6 8 11 14 12 13 13 11 11 11 10 7 9 4 1 1 1 1 2 9 11 9 4 8 11 10 10 15 12 9 9 8 8 8 6 5 4 5 5 5 6 6 6 6
7 6 6 5 5 2 3 4 4 5 4 5 12 12 10 10 12 12 10 9 8 5 2 1 3 2 4 5 5 8 10 9 6 5 4 7 6 6 5 7 7 6 5 5 5 4 2 2 1 3 4 2 2 5
4 1 4 4 3 5 4 4 4 4 7 6 12 13 8 10 10 10 8 7 5 3 2 6 5 2 2 3 3 6 7 3 2 2 1 2 1 2 5 5 7 7 5 4 4 4 5 3 2 4 5 6 2 5
3 3 4 3 3 3 4 5 5 9 6 8 10 4 5 3 3 4 5 5 4 11 16 16 16 15 10 9 8 6 6 10 6 6 3 1 1 2 2 4 6 9 8 7 8 8 8 8 7 6 4 4 2 1
2 2 2 2 3 3 4 3 3 3 2 4 5 3 3 3 3 1 2 4 5 5 8 10 9 11 13 11 10 11 12 12 9 7 7 6 7 5 5 6 5 9 10 7 8 10 9 10 10 10 5 5 5 5
2 2 2 2 3 4 3 3 4 4 4 3 2 3 3 3 5 1 1 4 5 2 4 3 2 4 6 7 8 10 10 10 11 13 12 11 11 9 8 10 8 7 10 8 6 6 9 11 11 8 7 6 5 4
2 2 2 3 3 2 3 3 2 1 2 3 2 2 3 4 2 3 1 4 1 3 3 0 5 9 9 9 9 9 8 9 10 12 14 15 17 17 14 9 7 8 8 11 11 11 10 14 15 11 9 8 5 4
1 4 4 2 1 1 3 2 2 3 3 2 2 5 4 1 1 3 3 1 8 8 8 11 16 16 16 15 17 18 17 15 13 15 16 13 13 14 17 15 12 10 8 10 10 9 9 8 13 14 14 11 10 10
2 3 4 3 4 5 4 5 7 2 3 2 2 2 2 2 2 2 7 11 12 17 21 18 16 18 16 15 13 15 14 13 15 17 15 10 10 8 11 15 15 13 14 14 16 12 8 7 11 15 12 13 16 13
4 3 2 2 2 4 2 3 2 2 2 4 6 2 3 2 2 5 18 25 24 22 19 16 16 15 11 13 14 8 8 8 10 11 11 10 12 11 11 13 8 9 11 12 16 24 10 9 12 11 11 11 14 15
4 5 7 7 6 5 5 4 3 3 2 5 2 3 3 9 25 29 28 27 28 21 14 7 4 2 1 1 2 4 6 7 12 10 8 7 7 12 12 12 11 12 13 9 10 12 10 8 5 8 10 10 11 11
3 4 2 3 3 3 4 7 5 9 14 15 11 14 15 24 20 22 21 15 15 9 4 4 2 3 5 6 6 4 2 7 10 12 11 7 5 4 9 12 12 12 12 12 13 14 15 14 8 11 11 12 15 15
4 3 3 4 4 8 10 11 14 17 20 22 20 15 22 14 11 14 19 21 16 10 1 2 2 2 3 4 5 5 7 2 8 12 12 8 9 8 5 7 8 9 12 12 11 9 14 16 15 13 15 16 17 20
3 4 3 2 4 7 9 2 4 3 3 3 3 2 3 3 5 7 9 21 19 15 13 10 6 3 6 7 8 9 10 8 4 5 9 11 9 8 6 6 8 10 10 12 14 13 13 12 14 17 16 17 20 15
3 4 5 4 4 4 3 4 2 3 4 9 9 8 1 1 4 8 8 11 12 17 16 17 14 9 7 4 7 6 3 4 6 7 6 6 6 6 5 6 7 10 12 11 11 12 11 12 13 11 11 14 15 15
Wind_Direction
312 314 316 318 319 319 321 323 325 329 332 332 336 337 332 329 327 326 320 281 281 274 278 278 265 246 257 230 203 314 337 334 347 43 114 201 149 211 132 195 180 183 167 216 108 115 263 193 130 159 196 113 135 151
313 315 315 317 318 319 320 320 325 327 329 329 329 332 330 328 325 317 307 301 291 278 264 281 278 275 262 248 243 266 269 304 260 39 323 307 213 130 155 254 36 262 187 190 174 213 251 254 227 160 150 147 158 161
313 313 314 315 317 320 319 320 323 326 327 328 327 325 326 322 318 311 299 296 303 286 299 277 287 289 256 241 238 226 242 231 205 39 201 255 250 127 147 227 237 274 161 161 93 287 357 115 135 137 135 132 141 153
313 314 314 315 317 321 320 320 322 323 326 327 326 321 321 315 313 304 294 291 279 275 276 287 289 291 290 255 228 221 225 227 259 327 269 225 246 210 195 190 159 219 355 163 229 33 84 125 146 149 148 153 157 161
310 311 310 309 314 316 317 320 320 320 322 324 324 319 318 312 307 296 291 282 272 227 283 290 304 346 169 227 218 216 221 231 254 294 332 246 266 39 310 74 330 239 213 117 196 208 135 176 165 167 167 169 170 165
306 313 311 310 312 313 317 318 320 320 320 323 324 318 315 310 305 304 302 237 247 212 281 291 305 299 309 256 205 212 213 216 212 205 225 261 282 344 104 151 264 300 90 130 166 154 178 175 167 173 177 179 180 178
306 311 308 310 312 314 316 318 319 320 321 323 323 320 313 305 286 257 251 5 152 179 259 288 292 291 325 197 181 191 191 184 193 211 222 231 282 13 98 168 232 167 107 111 116 113 99 143 165 181 184 184 182 183
303 303 304 307 309 312 313 317 318 320 322 325 324 320 313 302 271 274 220 260 213 207 255 282 277 303 6 221 145 170 169 197 225 208 173 182 310 43 279 248 193 175 146 108 97 107 122 130 142 173 187 183 184 189
296 299 300 305 309 309 314 326 326 326 326 328 324 315 299 307 253 247 289 247 204 222 278 264 305 312 344 350 291 168 157 138 202 190 216 149 185 205 216 228 196 181 162 149 128 122 132 126 129 144 178 187 186 187
301 303 300 306 309 309 311 320 325 324 330 333 331 308 257 274 304 290 203 173 193 229 229 240 242 258 322 334 309 1 187 174 177 228 142 159 239 237 226 210 195 181 175 156 141 133 135 131 131 150 191 203 208 197
303 306 298 300 304 306 315 317 321 322 337 344 331 282 296 297 300 220 221 197 193 234 213 236 233 269 305 192 285 4 223 358 205 184 158 203 258 252 242 213 205 188 178 175 182 172 176 173 175 185 198 198 195 187
301 309 296 298 301 310 314 316 317 322 330 321 306 290 302 294 247 250 236 195 209 239 207 253 279 233 222 226 266 343 333 360 222 328 162 186 255 60 145 146 150 151 152 150 157 155 145 143 147 154 166 186 185 176
297 297 294 297 299 306 310 309 311 322 327 321 286 272 258 261 296 239 204 220 303 1 5 329 323 228 179 67 55 187 224 235 302 47 199 211 69 138 130 132 131 135 138 136 131 131 131 126 127 136 148 167 176 178
291 294 296 298 300 308 303 312 324 329 326 290 271 284 225 221 241 279 316 258 283 317 347 306 251 297 8 68 306 259 232 104 23 343 228 194 154 142 138 136 135 132 131 127 126 127 126 130 131 145 165 176 194 211
291 295 295 303 302 293 311 315 322 322 274 266 257 244 236 267 266 312 338 300 293 292 314 333 291 199 223 202 219 277 158 198 206 233 229 164 151 153 143 139 135 134 133 132 134 134 132 133 142 158 169 188 205 218
293 294 300 298 311 308 310 307 312 268 245 240 239 276 289 279 349 344 331 326 334 316 315 290 270 299 346 314 254 160 298 251 291 285 133 145 127 128 128 133 132 132 131 130 131 129 133 143 152 166 213 240 243 242
281 290 303 304 308 308 303 296 265 231 233 233 242 249 268 278 263 284 301 310 331 328 346 303 339 333 270 279 23 17 358 298 322 153 140 137 137 142 142 139 135 132 129 127 123 124 122 114 100 93 103 92 42 344
289 305 298 311 313 313 309 213 243 251 242 236 237 266 262 264 276 297 299 304 322 333 343 355 305 340 28 358 6 347 323 357 100 100 119 131 135 140 139 139 132 130 127 128 133 132 125 121 128 128 99 89 84 76
295 298 302 309 328 314 276 245 228 267 264 284 271 281 291 290 296 292 291 292 304 307 310 335 331 239 210 104 319 332 348 349 33 94 116 138 140 144 147 145 136 123 127 133 120 128 122 118 105 120 120 103 85 67
299 303 291 291 294 280 272 263 231 265 270 292 294 282 285 281 284 288 280 271 278 302 291 254 227 188 147 150 341 350 328 349 37 81 109 126 136 151 159 163 155 146 136 136 141 130 139 181 205 189 154 150 78 35
309 325 323 309 277 237 266 295 261 263 293 280 288 298 280 276 266 263 268 258 227 215 228 239 230 189 65 32 8 355 346 355 70 71 32 134 158 164 185 187 200 197 194 207 222 239 252 249 189 167 155 149 83 26
273 308 310 280 255 249 266 243 260 297 281 280 300 260 275 281 260 230 204 180 225 233 228 230 243 258 267 283 299 286 294 318 302 282 301 253 191 255 228 192 205 214 226 247 261 254 272 272 252 199 177 191 224 7
283 289 267 244 266 243 261 256 257 257 262 270 290 286 259 279 270 211 227 218 238 282 253 240 256 262 253 265 254 255 273 271 274 268 262 267 269 267 257 241 267 262 242 259 282 276 243 237 237 221 215 229 245 271
282 264 252 259 225 274 297 256 238 263 272 272 260 278 276 259 318 222 280 8 340 37 112 123 183 220 218 233 237 243 248 248 245 247 254 255 253 262 287 257 259 253 226 241 277 260 229 233 225 209 200 220 245 272
293 232 233 286 230 258 262 266 247 292 277 267 274 302 287 332 0 45 303 225 305 138 145 144 330 304 277 268 262 261 258 252 262 265 255 263 262 256 259 258 240 242 255 251 253 256 253 227 217 218 201 199 219 250
250 219 176 270 20 211 291 286 300 256 274 281 281 314 302 337 145 199 247 325 350 324 314 301 307 302 285 277 275 268 260 262 262 266 276 273 263 251 242 243 243 237 244 226 215 206 180 198 220 242 249 243 252 256
275 274 229 232 267 270 285 283 272 245 266 263 275 297 292 269 254 203 5 342 332 319 309 306 298 298 274 265 288 280 259 254 254 261 263 258 236 228 233 232 233 246 257 222 203 197 189 226 245 239 254 253 249 274
254 276 212 204 216 248 267 270 251 253 282 345 338 296 320 288 273 328 331 326 323 321 314 300 296 291 275 259 280 257 238 261 248 244 237 251 224 216 213 207 208 216 217 218 222 219 241 316 288 238 238 248 241 271
252 257 275 279 271 236 220 224 248 249 358 0 338 287 281 329 303 306 314 320 319 315 315 325 343 29 59 295 263 263 251 242 229 231 245 267 222 222 217 211 213 213 214 225 210 196 229 267 294 226 227 228 255 252
258 262 267 268 268 254 244 221 249 278 295 300 295 290 308 298 302 321 328 353 353 340 345 23 22 327 339 336 333 347 233 215 225 233 241 254 212 193 211 222 202 224 235 226 219 235 246 243 265 258 266 274 277 281
263 254 248 240 258 257 266 282 280 276 276 278 280 273 279 291 341 37 36 26 19 18 13 290 288 293 301 359 30 60 63 26 230 231 220 234 199 193 188 202 210 214 222 222 234 242 238 243 250 283 274 273 282 258
234 216 217 274 277 291 307 290 303 301 297 287 297 192 229 248 287 8 31 23 23 39 46 48 47 43 20 25 30 21 36 43 74 136 160 166 179 187 202 217 235 250 239 236 243 237 237 240 257 271 271 272 277 261
225 231 244 280 287 300 343 312 267 286 14 357 355 9 25 318 342 7 13 20 30 11 6 11 25 30 35 29 352 358 30 70 88 120 172 194 186 188 214 231 259 261 255 233 205 198 219 254 266 269 273 280 271 260